This is the latest recevied weather packets stored in our database for station/object WD4IXD. If no packets are shown the sender has not sent any weather packets the latest 10 day(s).
| Time | Temp. | Humidity | Pressure | Rain* | Wind** | Luminosity | Snow |
|---|---|---|---|---|---|---|---|
| 1778026504 | 1.11° C | 94% | 1014.6 hPa | 0.25 mm | - | 25 W/m² | - |
| 1778026215 | 1.11° C | 94% | 1014.6 hPa | 0 mm | - | 16 W/m² | - |
| 1778025904 | 1.11° C | 94% | 1014.5 hPa | 0 mm | - | 21 W/m² | - |
| 1778025614 | 1.11° C | 94% | 1014.5 hPa | 0 mm | - | 21 W/m² | - |
| 1778025304 | 1.11° C | 94% | 1014.5 hPa | 0 mm | - | 21 W/m² | - |
| 1778025015 | 1.11° C | 94% | 1014.4 hPa | 0 mm | - | 21 W/m² | - |
| 1778024704 | 1.11° C | 94% | 1014.2 hPa | 0 mm | - | 19 W/m² | - |
| 1778024415 | 1.11° C | 94% | 1014.2 hPa | 0 mm | - | 16 W/m² | - |
| 1778024104 | 1.11° C | 94% | 1014.5 hPa | 0 mm | - | 12 W/m² | - |
| 1778023816 | 1.11° C | 94% | 1014.3 hPa | 0 mm | - | 12 W/m² | - |
| 1778023504 | 1.11° C | 94% | 1014.3 hPa | 0 mm | - | 11 W/m² | - |
| 1778023215 | 1.11° C | 94% | 1014.2 hPa | 0 mm | - | 5 W/m² | - |
| 1778022904 | 1.11° C | 94% | 1014.1 hPa | 0 mm | - | 5 W/m² | - |
| 1778022616 | 1.11° C | 94% | 1014 hPa | 0 mm | - | 7 W/m² | - |
| 1778022304 | 1.11° C | 94% | 1014 hPa | 0 mm | - | 9 W/m² | - |
| 1778022015 | 1.11° C | 94% | 1014.1 hPa | 0 mm | - | 12 W/m² | - |
| 1778021704 | 1.11° C | 94% | 1014.2 hPa | 0 mm | - | 12 W/m² | - |
| 1778021417 | 1.11° C | 94% | 1014 hPa | 0.25 mm | - | 14 W/m² | - |
| 1778021104 | 1.67° C | 94% | 1013.7 hPa | 0.51 mm | - | 19 W/m² | - |
| 1778020807 | 1.67° C | 94% | 1013.6 hPa | 0.51 mm | - | 30 W/m² | - |
| 1778020216 | 1.67° C | 94% | 1013.4 hPa | 0.51 mm | - | 30 W/m² | - |
| 1778019904 | 1.67° C | 94% | 1013.4 hPa | 0.76 mm | - | 21 W/m² | - |
| 1778019615 | 1.67° C | 94% | 1013.5 hPa | 1.02 mm | - | 21 W/m² | - |
| 1778019303 | 1.67° C | 94% | 1013.4 hPa | 1.02 mm | - | 28 W/m² | - |
| 1778019016 | 1.67° C | 94% | 1013.3 hPa | 1.27 mm | - | 40 W/m² | - |
* Rain latest hour (hover to see other rain measurements)
** Current wind speed in m/s (hover to see current wind gust speed)